When you browse on this site, cookies collect data to enhance your experience and personalize the content and advertising you see.
Visit our Privacy Policy to learn more. By continuing to use the site, you agree to this use of cookies and data.
  • In Romania
  • List of Countries
  • For 7 days
  • Water Temperature
  • Weather Map
  • Weather Widgets
  • user-avatar
    Login

    Hourly Weather Aiud

    Today, 27 May, Wednesday

    Time Temperature Precipitation Wind Pressure Humidity
    00:00 +9°C° 0 mm 1 mps 742 mmHg 86%
    01:00 +9°C° 0 mm 1 mps 742 mmHg 87%
    02:00 +9°C° 0 mm 1 mps 743 mmHg 87%
    03:00 +9°C° 0 mm 1 mps 743 mmHg 87%
    04:00 +9°C° 0 mm 1 mps 743 mmHg 87%
    05:00 +9°C° 0 mm 1 mps 743 mmHg 86%
    06:00 +10°C° 0 mm 1 mps 743 mmHg 84%
    07:00 +11°C° 0 mm 1 mps 743 mmHg 82%
    08:00 +12°C° 0 mm 1 mps 743 mmHg 79%
    09:00 +14°C° 0.2 mm 1 mps 743 mmHg 77%
    10:00 +15°C° 0.2 mm 2 mps 743 mmHg 74%
    11:00 +16°C° 0.2 mm 2 mps 744 mmHg 71%
    12:00 +16°C° 0.9 mm 3 mps 743 mmHg 72%
    13:00 +16°C° 0.9 mm 3 mps 743 mmHg 73%
    14:00 +17°C° 0.9 mm 3 mps 743 mmHg 74%
    15:00 +17°C° 0.6 mm 3 mps 742 mmHg 74%
    16:00 +17°C° 0.6 mm 3 mps 742 mmHg 74%
    17:00 +17°C° 0.6 mm 3 mps 742 mmHg 74%
    18:00 +15°C° 0.4 mm 2 mps 742 mmHg 78%
    19:00 +14°C° 0.4 mm 2 mps 742 mmHg 82%
    20:00 +13°C° 0.4 mm 2 mps 742 mmHg 86%
    21:00 +12°C° 0.1 mm 2 mps 742 mmHg 87%
    22:00 +12°C° 0.1 mm 1 mps 742 mmHg 88%
    23:00 +11°C° 0.1 mm 1 mps 742 mmHg 88%

    Tomorrow, 28 May, Thursday

    Time Temperature Precipitation Wind Pressure Humidity
    00:00 +11°C° 0.1 mm 1 mps 742 mmHg 89%
    01:00 +10°C° 0.1 mm 1 mps 741 mmHg 89%
    02:00 +10°C° 0.1 mm 1 mps 741 mmHg 89%
    03:00 +10°C° 0 mm 1 mps 741 mmHg 90%
    04:00 +10°C° 0 mm 1 mps 741 mmHg 90%
    05:00 +10°C° 0 mm 1 mps 740 mmHg 90%
    06:00 +11°C° 0 mm 1 mps 740 mmHg 87%
    07:00 +13°C° 0 mm 1 mps 740 mmHg 83%
    08:00 +14°C° 0 mm 1 mps 740 mmHg 80%
    09:00 +15°C° 0.5 mm 2 mps 740 mmHg 77%
    10:00 +16°C° 0.5 mm 2 mps 739 mmHg 74%
    11:00 +17°C° 0.5 mm 3 mps 739 mmHg 71%
    12:00 +17°C° 0.5 mm 3 mps 739 mmHg 70%
    13:00 +18°C° 0.5 mm 3 mps 738 mmHg 68%
    14:00 +18°C° 0.5 mm 3 mps 738 mmHg 66%
    15:00 +18°C° 0.9 mm 3 mps 737 mmHg 68%
    16:00 +18°C° 0.9 mm 3 mps 737 mmHg 70%
    17:00 +18°C° 0.9 mm 3 mps 737 mmHg 73%
    18:00 +16°C° 0.5 mm 3 mps 737 mmHg 77%
    19:00 +14°C° 0.5 mm 3 mps 737 mmHg 81%
    20:00 +13°C° 0.5 mm 2 mps 737 mmHg 85%
    21:00 +12°C° 0 mm 2 mps 737 mmHg 86%
    22:00 +12°C° 0 mm 2 mps 737 mmHg 87%
    23:00 +10°C° 0 mm 2 mps 737 mmHg 88%

    Day after tomorrow, 29 May, Friday

    Time Temperature Precipitation Wind Pressure Humidity
    00:00 +10°C° 0 mm 2 mps 737 mmHg 89%
    01:00 +9°C° 0 mm 2 mps 737 mmHg 90%
    02:00 +9°C° 0 mm 2 mps 737 mmHg 91%
    03:00 +10°C° 0 mm 1 mps 737 mmHg 91%
    04:00 +9°C° 0 mm 1 mps 737 mmHg 91%
    05:00 +9°C° 0 mm 1 mps 737 mmHg 91%
    06:00 +11°C° 0 mm 1 mps 737 mmHg 88%
    07:00 +13°C° 0 mm 1 mps 737 mmHg 84%
    08:00 +15°C° 0 mm 1 mps 737 mmHg 80%
    09:00 +16°C° 0.6 mm 2 mps 737 mmHg 78%
    10:00 +17°C° 0.6 mm 2 mps 737 mmHg 77%
    11:00 +18°C° 0.6 mm 2 mps 737 mmHg 75%
    12:00 +18°C° 1.1 mm 2 mps 737 mmHg 74%
    13:00 +18°C° 1.1 mm 3 mps 737 mmHg 74%
    14:00 +19°C° 1.1 mm 3 mps 736 mmHg 73%
    15:00 +18°C° 1.1 mm 3 mps 736 mmHg 74%
    16:00 +18°C° 1.1 mm 3 mps 736 mmHg 76%
    17:00 +18°C° 1.1 mm 3 mps 736 mmHg 77%
    18:00 +16°C° 0.5 mm 2 mps 736 mmHg 80%
    19:00 +15°C° 0.5 mm 2 mps 736 mmHg 84%
    20:00 +14°C° 0.5 mm 2 mps 736 mmHg 87%
    21:00 +13°C° 0 mm 2 mps 736 mmHg 87%
    22:00 +12°C° 0 mm 1 mps 736 mmHg 88%
    23:00 +12°C° 0 mm 1 mps 737 mmHg 89%

    30 May, Saturday

    Time Temperature Precipitation Wind Pressure Humidity
    00:00 +11°C° 0 mm 1 mps 736 mmHg 89%
    01:00 +11°C° 0 mm 1 mps 736 mmHg 89%
    02:00 +10°C° 0 mm 1 mps 736 mmHg 89%
    03:00 +10°C° 0 mm 1 mps 736 mmHg 89%
    04:00 +10°C° 0 mm 1 mps 736 mmHg 89%
    05:00 +9°C° 0 mm 1 mps 736 mmHg 90%
    06:00 +11°C° 0 mm 1 mps 737 mmHg 86%
    07:00 +13°C° 0 mm 1 mps 737 mmHg 83%
    08:00 +15°C° 0 mm 1 mps 737 mmHg 79%
    09:00 +16°C° 0.2 mm 1 mps 737 mmHg 75%
    10:00 +17°C° 0.2 mm 2 mps 737 mmHg 70%
    11:00 +19°C° 0.2 mm 2 mps 737 mmHg 66%
    12:00 +19°C° 0.7 mm 2 mps 737 mmHg 67%
    13:00 +19°C° 0.7 mm 3 mps 737 mmHg 67%
    14:00 +19°C° 0.7 mm 3 mps 736 mmHg 67%
    15:00 +19°C° 0.6 mm 3 mps 736 mmHg 69%
    16:00 +18°C° 0.6 mm 3 mps 736 mmHg 71%
    17:00 +18°C° 0.6 mm 3 mps 736 mmHg 72%
    18:00 +17°C° 0.2 mm 3 mps 736 mmHg 77%
    19:00 +15°C° 0.2 mm 2 mps 736 mmHg 81%
    20:00 +14°C° 0.2 mm 2 mps 736 mmHg 86%
    21:00 +13°C° 0 mm 1 mps 736 mmHg 87%
    22:00 +12°C° 0 mm 1 mps 736 mmHg 88%
    23:00 +11°C° 0 mm 1 mps 737 mmHg 89%

    31 May, Sunday

    Time Temperature Precipitation Wind Pressure Humidity
    00:00 +11°C° 0 mm 1 mps 737 mmHg 89%
    01:00 +10°C° 0 mm 1 mps 736 mmHg 90%
    02:00 +9°C° 0 mm 0 mps 736 mmHg 90%
    03:00 +9°C° 0 mm 0 mps 736 mmHg 90%
    04:00 +8°C° 0 mm 0 mps 736 mmHg 90%
    05:00 +8°C° 0 mm 0 mps 736 mmHg 91%
    06:00 +11°C° 0 mm 1 mps 736 mmHg 87%
    07:00 +13°C° 0 mm 1 mps 736 mmHg 84%
    08:00 +14°C° 0 mm 1 mps 736 mmHg 80%
    09:00 +16°C° 0.2 mm 1 mps 736 mmHg 77%
    10:00 +17°C° 0.2 mm 2 mps 736 mmHg 74%
    11:00 +18°C° 0.2 mm 3 mps 736 mmHg 70%
    12:00 +18°C° 0.4 mm 3 mps 736 mmHg 69%
    13:00 +18°C° 0.4 mm 4 mps 735 mmHg 67%
    14:00 +18°C° 0.4 mm 4 mps 735 mmHg 65%
    15:00 +18°C° 0.1 mm 4 mps 735 mmHg 65%
    16:00 +18°C° 0.1 mm 3 mps 735 mmHg 66%
    17:00 +18°C° 0.1 mm 2 mps 735 mmHg 67%
    18:00 +16°C° 0.2 mm 2 mps 734 mmHg 72%
    19:00 +15°C° 0.2 mm 2 mps 734 mmHg 78%
    20:00 +13°C° 0.2 mm 1 mps 734 mmHg 84%
    21:00 +13°C° 0 mm 1 mps 734 mmHg 86%
    22:00 +12°C° 0 mm 1 mps 734 mmHg 88%
    23:00 +11°C° 0 mm 1 mps 734 mmHg 90%

    1 June, Monday

    Time Temperature Precipitation Wind Pressure Humidity
    00:00 +11°C° 0 mm 1 mps 734 mmHg 91%
    01:00 +11°C° 0 mm 1 mps 734 mmHg 91%
    02:00 +11°C° 0 mm 1 mps 734 mmHg 92%
    03:00 +11°C° 0 mm 1 mps 734 mmHg 92%
    04:00 +11°C° 0 mm 1 mps 733 mmHg 92%
    05:00 +11°C° 0 mm 1 mps 733 mmHg 92%
    06:00 +11°C° 0.2 mm 1 mps 733 mmHg 92%
    07:00 +12°C° 0.2 mm 1 mps 733 mmHg 91%
    08:00 +13°C° 0.2 mm 1 mps 734 mmHg 91%
    09:00 +13°C° 0.3 mm 1 mps 734 mmHg 89%
    10:00 +14°C° 0.3 mm 1 mps 734 mmHg 88%
    11:00 +14°C° 0.3 mm 1 mps 734 mmHg 86%
    12:00 +15°C° 0.3 mm 1 mps 734 mmHg 83%
    13:00 +16°C° 0.3 mm 2 mps 734 mmHg 81%
    14:00 +17°C° 0.3 mm 2 mps 734 mmHg 78%
    15:00 +17°C° 0.5 mm 2 mps 734 mmHg 78%
    16:00 +17°C° 0.5 mm 2 mps 734 mmHg 79%
    17:00 +17°C° 0.5 mm 2 mps 733 mmHg 79%
    18:00 +16°C° 0.3 mm 1 mps 733 mmHg 83%
    19:00 +15°C° 0.3 mm 1 mps 734 mmHg 87%
    20:00 +14°C° 0.3 mm 1 mps 734 mmHg 90%
    21:00 +13°C° 0 mm 1 mps 734 mmHg 91%
    22:00 +12°C° 0 mm 1 mps 734 mmHg 91%
    23:00 +12°C° 0 mm 1 mps 735 mmHg 91%
    Show more